Wetbulb
67.55 67.26 66.44 66.06 66.74 66.81 67.70 67.11 63.38 59.22 60.05 63.73 64.33 67.07 66.54 66.65 67.25 65.23 64.41 65.07 64.94 64.53 64.36 65.27 65.88 66.53 67.03 67.57 67.73 67.75 67.79 68.09 68.24 68.18 68.87 69.95 70.76 70.65
67.79 67.05 66.34 66.61 67.39 67.50 66.74 66.91 66.53 63.77 60.65 63.46 64.95 64.27 63.95 63.80 64.36 62.53 62.91 63.18 63.63 62.82 61.89 61.97 62.75 63.27 64.18 65.04 66.08 66.49 66.53 66.85 67.07 67.14 67.30 67.36 67.43 67.93
67.52 67.46 67.27 67.66 67.16 67.05 67.35 66.89 66.69 65.79 62.68 64.05 65.19 63.66 60.66 59.98 59.94 60.38 60.58 60.22 60.50 61.19 60.38 59.95 59.33 59.48 59.69 60.67 62.22 63.26 63.81 64.13 64.49 64.74 65.07 65.35 66.09 65.56
62.54 63.52 64.56 66.08 64.90 65.65 66.68 66.28 65.38 65.92 64.05 62.65 63.81 59.96 59.09 58.81 58.23 57.69 58.87 59.63 59.22 60.24 59.38 58.82 57.85 57.28 56.50 56.18 55.94 56.32 57.32 59.08 60.26 61.18 62.52 63.27 63.82 64.16
61.21 61.31 62.01 64.00 63.58 64.05 64.52 64.60 64.08 63.72 63.31 61.85 62.20 61.96 59.34 58.57 57.10 57.46 56.98 56.92 58.02 58.78 58.39 58.30 57.90 57.13 56.26 55.57 54.61 53.61 52.96 53.89 54.82 55.86 57.04 58.48 60.13 60.71
59.58 59.17 58.97 60.09 62.64 63.28 63.50 63.23 62.94 62.05 61.88 60.62 60.16 59.84 59.94 59.51 58.49 55.14 53.57 55.16 54.57 55.45 56.28 56.06 56.49 57.09 56.40 55.52 54.85 53.55 51.90 51.36 51.44 52.41 53.04 53.65 54.85 57.18
57.96 58.03 58.26 60.95 61.58 61.95 60.66 61.24 61.53 60.00 58.75 58.15 57.69 57.67 57.59 57.61 56.52 55.60 53.24 53.37 53.83 54.22 52.79 52.63 52.23 51.95 52.90 53.48 53.58 52.77 51.63 51.71 51.51 51.41 51.44 51.54 52.23 53.56
57.78 57.28 57.05 57.78 58.89 59.05 58.42 59.20 60.90 58.60 56.50 55.84 57.14 56.44 57.17 56.38 56.00 54.50 53.06 52.73 51.45 55.72 53.28 51.50 52.28 50.01 50.19 50.96 52.74 52.15 51.65 51.71 51.87 51.52 51.47 51.31 51.29 51.50
57.87 56.14 56.02 56.22 55.45 52.38 53.73 54.00 54.96 58.54 59.67 58.48 56.79 56.92 57.44 58.30 57.00 55.74 56.00 52.10 51.87 53.59 52.36 50.83 52.78 49.31 48.56 50.30 52.07 51.72 51.54 51.51 51.23 51.07 50.83 50.49 49.78 49.51
53.59 56.26 53.84 52.16 53.47 51.21 48.63 46.91 45.79 47.70 52.13 54.43 52.21 51.72 52.45 55.96 56.34 56.00 52.55 51.50 53.39 54.87 55.17 49.98 51.48 50.87 50.49 49.59 51.69 51.53 51.28 51.15 50.86 50.38 50.01 49.19 48.08 47.72
50.25 51.24 51.67 50.42 52.75 54.57 51.05 48.51 46.66 46.10 51.12 52.38 52.55 52.66 53.49 54.30 55.39 56.57 51.82 50.45 49.53 50.23 51.38 50.60 50.32 50.32 51.09 50.83 48.85 51.01 50.61 50.38 50.39 50.24 49.80 48.91 47.60 47.54
50.16 48.67 51.73 48.89 50.05 52.16 55.07 52.46 50.01 49.08 47.62 47.73 48.01 49.14 50.91 51.23 54.34 50.75 49.52 50.96 52.60 49.96 53.19 48.05 49.22 49.22 45.79 50.33 51.28 48.24 45.90 49.52 49.20 49.14 48.75 47.96 46.93 44.17
49.96 48.18 46.23 47.91 46.65 47.01 47.71 47.76 45.83 45.49 47.35 48.50 49.19 49.84 46.71 48.23 48.52 49.33 48.34 47.97 45.66 46.66 50.38 49.96 47.69 47.00 46.73 45.01 46.75 47.74 46.95 46.35 45.18 46.18 46.95 46.31 46.08 46.06
49.61 48.75 46.08 44.39 43.54 45.79 44.24 45.47 46.21 46.53 43.02 45.36 44.40 42.62 43.39 44.72 45.83 48.80 48.62 48.18 48.40 47.99 48.66 48.39 47.27 47.02 46.25 45.67 46.24 48.64 48.43 47.43 46.42 45.98 45.47 46.14 46.72 47.25
46.36 46.95 46.22 44.57 43.49 44.91 46.13 46.96 47.55 44.59 44.77 43.09 41.77 42.44 42.06 42.77 46.59 48.88 49.47 48.70 47.63 47.84 50.75 48.62 47.28 45.78 45.08 42.78 45.01 47.15 47.90 49.04 48.55 48.14 47.65 46.66 46.12 45.11
47.30 43.61 46.99 47.61 47.66 47.60 44.88 45.90 42.71 42.20 43.72 42.14 41.52 42.03 43.71 42.73 41.75 43.23 46.58 48.09 45.75 46.01 47.99 48.20 46.37 44.76 42.88 42.32 42.26 42.42 44.74 44.14 47.29 48.34 47.42 46.66 47.94 50.03
46.80 45.32 42.85 42.37 42.05 44.30 44.59 45.00 43.53 44.61 43.25 42.39 41.10 41.05 41.11 41.99 41.76 42.11 41.81 41.59 44.45 44.95 45.86 46.81 46.63 45.48 46.15 43.64 41.13 41.01 41.88 43.71 45.54 44.27 42.26 40.77 43.71 45.96
43.53 43.40 44.10 44.98 44.16 44.47 43.65 42.88 42.55 43.88 41.55 42.26 40.92 39.59 41.03 38.65 38.79 39.97 41.41 41.27 41.07 41.78 45.17 46.34 45.29 44.71 44.82 45.09 45.73 40.71 40.69 42.33 44.31 43.16 40.94 39.68 39.99 43.59
41.07 43.74 43.97 43.64 43.13 42.78 42.75 41.95 40.75 40.57 40.57 42.66 41.23 41.29 40.65 42.07 40.19 40.72 42.10 42.11 41.40 41.99 41.74 42.59 42.02 40.95 39.99 40.81 40.87 46.98 38.37 38.04 38.76 39.58 42.47 41.00 38.53 41.94
39.00 41.05 44.13 44.11 43.63 42.94 42.83 42.34 42.32 42.08 43.04 40.85 41.82 43.13 43.12 41.80 41.37 42.13 41.45 39.79 37.97 37.89 39.03 42.74 40.91 39.61 38.30 38.02 39.75 40.62 45.14 39.93 38.06 37.08 37.65 39.04 42.44 48.23
45.19 45.07 44.51 44.58 43.48 44.13 43.05 42.09 41.52 41.46 40.37 41.21 41.23 41.17 42.59 42.28 40.92 42.39 41.66 41.77 40.50 38.01 37.33 40.85 41.42 46.12 40.07 39.66 37.44 38.89 40.21 45.42 42.95 39.13 38.95 37.03 36.59 37.99
44.35 43.99 45.29 44.59 44.89 44.55 43.49 43.33 42.55 42.18 41.22 41.17 41.85 41.38 41.50 42.62 40.61 41.30 41.39 40.73 39.25 38.58 39.52 42.27 41.43 41.06 40.69 40.04 38.14 38.21 38.58 39.39 43.44 47.20 46.98 43.31 37.46 35.28
44.78 44.40 43.53 43.40 44.55 44.93 44.42 43.43 42.49 42.67 41.96 42.89 43.31 42.76 42.70 42.24 41.46 41.46 41.12 40.75 39.89 40.00 40.13 39.54 41.35 42.07 40.67 40.76 40.04 37.74 40.26 39.49 38.54 38.75 39.20 45.19 46.83 46.54
MSLP
1014.12 1014.37 1014.63 1014.87 1015.21 1015.60 1015.95 1016.37 1016.59 1017.17 1017.30 1017.52 1018.05 1018.33 1018.52 1018.70 1018.61 1018.61 1018.56 1018.31 1018.15 1017.72 1017.33 1017.19 1017.01 1016.88 1016.84 1016.85 1016.71 1016.44 1016.20 1016.38 1016.49 1016.62 1016.54 1016.48 1016.56 1016.48
1014.42 1014.66 1014.84 1014.85 1015.00 1015.19 1015.40 1015.79 1015.96 1016.29 1017.10 1017.42 1018.09 1018.67 1018.84 1018.96 1018.98 1018.95 1018.98 1018.64 1018.55 1018.37 1018.18 1018.02 1017.77 1017.64 1017.46 1017.18 1016.68 1016.69 1016.58 1016.64 1016.61 1016.55 1016.48 1016.19 1016.64 1016.75
1015.04 1015.12 1015.16 1014.89 1015.18 1015.36 1015.41 1015.53 1015.74 1016.05 1016.73 1017.65 1017.96 1018.87 1019.29 1019.51 1019.54 1019.40 1019.38 1019.30 1019.28 1019.21 1019.05 1018.89 1018.67 1018.48 1018.24 1017.99 1017.54 1017.31 1017.30 1017.26 1017.21 1017.04 1016.98 1016.97 1017.12 1017.14
1016.07 1015.94 1015.87 1015.69 1015.63 1015.64 1015.66 1015.82 1015.98 1016.09 1016.51 1017.31 1018.19 1019.11 1019.59 1019.86 1019.91 1019.95 1019.98 1019.98 1020.09 1020.09 1019.85 1019.72 1019.51 1019.23 1019.06 1019.06 1018.93 1018.66 1018.43 1018.20 1018.19 1017.93 1017.82 1017.79 1017.86 1017.83
1016.78 1016.73 1016.70 1016.47 1016.52 1016.54 1016.53 1016.56 1016.67 1016.70 1016.77 1017.34 1018.12 1018.83 1019.67 1020.04 1020.27 1020.40 1020.52 1020.51 1020.56 1020.71 1020.63 1020.32 1020.07 1020.07 1020.04 1020.01 1020.00 1019.63 1019.51 1019.26 1019.17 1019.07 1019.06 1019.01 1018.91 1018.99
1017.58 1017.60 1017.68 1017.52 1017.28 1017.11 1017.09 1017.14 1017.15 1017.24 1017.46 1017.93 1018.53 1019.01 1019.40 1020.01 1020.24 1020.69 1021.06 1021.13 1021.25 1021.35 1021.29 1021.14 1020.89 1020.77 1020.80 1020.76 1020.77 1020.78 1020.58 1020.38 1020.17 1020.13 1019.99 1020.09 1019.97 1019.97
1018.23 1018.21 1018.22 1018.15 1017.98 1017.82 1017.75 1017.74 1017.72 1017.84 1018.10 1018.42 1018.84 1019.23 1019.55 1019.95 1020.34 1020.91 1021.38 1021.63 1021.92 1021.85 1021.94 1021.77 1021.66 1021.66 1021.67 1021.57 1021.52 1021.50 1021.38 1021.15 1021.00 1020.96 1021.08 1020.94 1020.92 1020.97
1018.88 1019.00 1019.04 1018.92 1018.77 1018.63 1018.48 1018.36 1018.15 1018.29 1018.49 1018.86 1019.24 1019.47 1019.73 1020.04 1020.42 1020.74 1021.14 1021.38 1021.75 1021.88 1022.14 1022.33 1022.29 1022.49 1022.44 1022.15 1022.00 1022.07 1021.90 1021.74 1021.74 1021.76 1021.73 1021.71 1021.75 1021.91
1019.17 1019.35 1019.52 1019.63 1019.45 1019.23 1019.09 1019.02 1019.04 1018.98 1018.96 1019.08 1019.49 1019.74 1019.96 1020.00 1020.23 1020.53 1020.70 1020.99 1021.38 1021.65 1021.80 1022.50 1022.62 1022.82 1022.86 1022.75 1022.41 1022.33 1022.36 1022.47 1022.35 1022.36 1022.43 1022.49 1022.52 1022.66
1019.76 1019.89 1019.99 1020.05 1019.96 1019.81 1019.69 1019.76 1019.84 1019.74 1019.75 1019.85 1020.02 1020.16 1020.10 1020.04 1020.05 1020.23 1020.65 1021.03 1021.45 1021.49 1021.39 1022.20 1022.67 1022.94 1023.07 1023.08 1022.79 1022.61 1022.73 1022.85 1022.76 1022.81 1022.87 1022.92 1023.04 1023.16
1020.43 1020.55 1020.57 1020.48 1020.34 1020.34 1020.32 1020.61 1020.72 1020.59 1020.31 1020.21 1020.20 1020.19 1020.13 1020.09 1020.10 1020.47 1021.09 1021.33 1021.71 1021.79 1021.69 1021.84 1022.55 1022.89 1023.04 1023.00 1023.03 1022.85 1022.94 1023.21 1023.11 1023.02 1023.16 1023.36 1023.43 1023.52
1021.05 1021.03 1021.07 1021.01 1020.79 1020.60 1020.70 1020.91 1021.26 1021.19 1020.90 1020.75 1020.78 1020.82 1020.67 1020.47 1020.49 1020.64 1020.69 1020.83 1021.06 1021.60 1021.37 1021.52 1022.20 1022.50 1023.02 1022.88 1022.80 1022.83 1023.20 1023.29 1023.16 1023.08 1023.24 1023.34 1023.49 1023.79
1021.49 1021.51 1021.44 1021.28 1021.27 1021.17 1021.05 1021.06 1021.36 1021.29 1021.04 1021.18 1021.22 1021.19 1021.19 1020.90 1020.97 1020.85 1020.58 1020.54 1020.80 1021.23 1021.26 1021.07 1021.80 1022.19 1022.44 1022.70 1022.58 1022.61 1023.00 1023.22 1023.24 1023.18 1023.19 1023.33 1023.45 1023.55
1021.50 1021.67 1021.66 1021.67 1021.67 1021.21 1021.34 1021.28 1021.07 1021.09 1021.11 1021.31 1021.73 1021.72 1021.57 1021.30 1021.24 1021.15 1020.89 1020.82 1020.79 1020.93 1021.15 1020.74 1021.36 1021.58 1021.74 1022.32 1022.45 1022.30 1022.63 1022.72 1022.87 1022.83 1022.92 1022.98 1023.06 1023.18
1021.41 1021.65 1021.54 1021.45 1021.57 1021.54 1021.07 1021.05 1021.33 1021.34 1021.41 1021.88 1021.97 1021.78 1021.33 1021.34 1021.25 1021.19 1021.06 1021.10 1021.15 1021.11 1020.86 1020.70 1020.88 1020.97 1021.17 1021.59 1021.80 1021.97 1022.15 1022.29 1022.37 1022.49 1022.57 1022.71 1022.75 1022.86
1021.55 1021.71 1021.78 1021.72 1021.73 1021.59 1021.47 1021.39 1021.56 1021.72 1021.79 1022.01 1022.03 1021.70 1021.51 1021.36 1021.41 1021.40 1021.56 1021.54 1021.65 1021.53 1020.93 1020.64 1020.74 1020.64 1021.28 1021.44 1021.44 1021.77 1021.76 1022.00 1022.01 1022.19 1022.30 1022.34 1022.26 1022.42
1021.90 1022.10 1022.20 1022.22 1022.24 1022.09 1021.90 1021.64 1021.71 1021.88 1022.08 1022.07 1022.17 1022.13 1022.05 1021.78 1021.80 1021.42 1021.38 1021.59 1021.75 1021.78 1021.57 1020.97 1021.04 1020.83 1020.89 1021.02 1021.54 1021.81 1021.80 1021.74 1021.64 1021.80 1022.18 1022.28 1021.92 1021.94
1022.16 1022.43 1022.31 1022.24 1022.25 1022.21 1022.29 1022.39 1022.28 1022.34 1022.27 1022.19 1022.32 1022.24 1022.32 1022.13 1022.06 1021.73 1021.52 1021.62 1021.65 1021.66 1021.65 1021.44 1021.37 1021.36 1021.24 1021.23 1021.17 1021.65 1021.74 1021.86 1021.80 1021.74 1021.90 1022.22 1022.30 1022.01
1022.40 1022.28 1022.23 1021.98 1022.14 1022.26 1022.41 1022.55 1022.71 1022.44 1022.22 1022.34 1022.37 1022.38 1022.21 1022.12 1022.08 1021.97 1021.90 1021.76 1021.73 1021.64 1021.49 1021.13 1021.35 1021.69 1021.92 1021.95 1021.57 1021.20 1021.68 1021.80 1021.84 1021.99 1021.86 1022.03 1022.04 1021.73
1022.40 1022.35 1022.14 1021.85 1021.97 1022.18 1022.33 1022.45 1022.56 1022.49 1022.43 1022.55 1022.50 1022.39 1022.26 1022.15 1022.20 1022.07 1021.86 1021.81 1021.69 1021.55 1021.56 1021.46 1021.38 1021.24 1021.47 1021.67 1021.64 1021.30 1020.90 1021.24 1021.50 1021.72 1021.68 1021.50 1021.38 1020.89
1021.87 1021.71 1021.57 1021.27 1021.45 1021.61 1021.86 1022.05 1022.15 1022.30 1022.40 1022.30 1022.24 1022.29 1022.20 1022.14 1022.03 1022.04 1021.90 1021.75 1021.59 1021.53 1021.53 1021.44 1021.04 1020.60 1020.95 1021.32 1021.57 1021.40 1020.83 1020.61 1020.85 1020.90 1021.00 1021.29 1021.14 1021.38
1021.44 1021.10 1021.09 1021.18 1021.29 1021.50 1021.65 1021.79 1021.92 1022.06 1022.12 1022.18 1022.04 1022.02 1021.91 1021.89 1021.88 1021.88 1021.78 1021.70 1021.55 1021.42 1021.21 1020.91 1020.81 1020.92 1020.95 1021.16 1021.42 1021.36 1021.01 1020.52 1020.27 1020.35 1020.34 1020.35 1020.58 1020.74
1020.89 1020.68 1020.92 1021.07 1021.18 1021.27 1021.47 1021.69 1021.74 1021.78 1021.82 1021.82 1021.79 1021.75 1021.65 1021.65 1021.44 1021.40 1021.31 1021.22 1021.24 1021.11 1020.96 1020.93 1020.88 1021.06 1020.89 1020.80 1020.71 1020.74 1020.68 1020.45 1020.40 1020.45 1020.18 1019.79 1019.96 1020.09
Wind_Speed
3 2 1 1 3 4 4 3 4 3 0 3 4 5 4 3 7 5 6 11 13 14 14 13 12 12 10 8 6 5 3 2 2 5 8 7 9 12
3 3 1 2 3 2 3 3 3 3 3 2 3 4 5 5 9 7 8 13 15 15 15 15 15 14 12 11 11 11 11 10 9 8 7 7 5 5
11 9 9 5 4 3 1 2 3 2 3 2 2 3 4 6 6 7 9 8 9 18 19 18 18 18 19 19 17 15 16 16 16 17 17 17 16 19
10 10 9 6 7 6 5 6 5 4 3 6 3 3 5 5 6 7 6 7 8 18 21 20 21 21 21 20 20 21 19 19 19 18 18 17 18 18
9 9 8 8 8 6 7 6 5 4 4 4 4 3 3 3 5 5 5 7 6 14 17 21 21 21 20 19 17 17 16 16 17 17 17 17 18 21
8 8 7 7 6 6 5 5 4 5 5 6 5 3 3 3 3 3 5 4 5 5 12 14 15 19 18 17 17 16 15 14 14 14 14 13 13 14
7 8 7 13 16 12 4 5 5 4 4 4 3 2 2 2 2 2 3 3 4 3 4 5 6 6 7 11 13 15 14 15 13 13 13 13 13 13
6 5 6 10 11 15 16 18 8 5 5 4 2 3 3 3 3 3 4 3 2 2 2 5 4 5 4 3 12 12 13 13 13 13 13 13 14 14
7 6 7 7 8 7 12 14 14 15 10 5 5 3 2 2 4 3 2 2 3 5 5 3 1 3 2 3 10 11 11 10 12 13 12 13 13 12
7 7 7 6 6 6 7 8 8 7 6 5 6 4 4 4 3 2 4 4 3 2 2 2 1 1 2 2 7 8 8 9 10 10 10 10 10 10
6 7 6 6 8 3 6 7 6 4 6 7 5 6 9 11 4 5 3 3 2 2 2 3 3 2 1 2 1 4 5 5 6 6 6 6 6 7
5 6 11 7 10 9 5 6 4 1 0 1 2 4 5 7 8 4 2 4 3 1 3 3 3 3 1 1 2 2 1 4 4 4 4 5 4 1
4 3 4 8 8 10 9 6 2 3 5 3 3 2 3 4 5 5 5 4 4 3 4 3 4 3 2 3 2 3 4 3 3 4 6 6 6 5
4 3 3 6 8 7 6 6 8 6 3 3 3 3 2 2 2 3 3 4 3 4 2 3 3 3 3 3 3 2 3 4 4 3 4 5 9 9
4 5 4 3 3 5 4 6 6 5 5 4 2 1 1 1 1 1 2 3 3 2 2 3 3 2 3 2 3 2 4 4 4 4 3 4 4 3
4 2 3 3 5 5 3 4 3 3 2 2 2 1 1 2 2 1 1 1 1 3 4 3 3 3 2 2 3 2 2 4 3 4 3 2 3 3
1 2 3 2 3 3 2 2 3 5 5 3 3 3 3 2 3 3 2 1 2 2 2 3 3 4 4 3 3 2 0 2 3 4 3 1 2 5
3 1 3 3 3 3 1 1 3 3 2 3 3 2 2 2 1 3 2 1 1 2 3 2 2 3 4 4 3 1 2 1 1 1 0 2 1 3
1 2 2 3 3 3 4 2 1 1 1 2 2 2 2 2 3 3 3 2 3 2 2 3 2 3 2 2 3 1 3 3 1 1 3 3 3 5
2 3 3 4 3 3 4 3 2 3 3 2 3 3 3 1 2 3 1 1 1 1 2 2 1 3 5 5 3 4 4 2 2 2 2 2 2 3
4 4 5 4 3 4 4 3 3 2 2 2 2 2 3 2 2 3 3 4 1 1 2 1 4 6 3 3 2 3 4 8 6 5 2 2 2 2
4 2 2 2 3 5 4 4 3 2 3 3 4 3 3 3 3 3 3 1 2 3 3 3 3 2 2 4 4 3 3 3 5 7 7 9 5 3
3 4 4 3 2 2 2 3 3 3 3 3 4 5 4 3 4 4 4 4 3 3 2 2 3 1 3 4 5 3 4 5 3 4 5 9 11 9
Wind_Direction
159 194 219 168 161 178 167 202 179 161 198 23 108 63 86 68 79 74 56 59 58 58 52 52 59 59 55 50 36 19 7 335 306 313 292 270 276 295
73 116 219 231 229 192 173 189 154 161 135 118 82 110 88 79 73 62 53 49 47 51 52 52 54 56 55 53 61 66 67 68 70 70 54 43 18 336
49 49 32 18 49 54 70 84 82 114 128 103 103 99 66 72 61 60 56 53 52 57 59 58 59 57 55 48 54 66 75 74 74 75 74 77 79 70
34 39 38 32 45 40 66 73 79 63 120 120 107 94 80 72 76 69 59 64 63 63 64 65 65 64 64 62 61 60 60 67 67 68 71 77 77 80
44 43 34 42 44 30 35 46 48 43 47 99 105 101 121 129 87 73 66 66 65 63 60 65 65 64 63 63 62 64 59 62 64 65 65 65 71 74
53 49 34 31 45 57 59 61 71 74 75 86 78 83 90 133 102 105 81 56 71 57 60 61 60 62 64 66 66 64 61 61 65 67 66 64 65 73
49 59 55 67 57 49 45 37 65 74 77 83 82 84 76 97 98 107 90 89 60 69 68 51 52 46 46 54 62 70 73 72 68 66 64 62 63 65
95 74 65 57 56 47 43 49 61 97 89 94 105 101 109 126 138 141 145 177 125 195 63 60 49 52 35 45 78 77 78 78 75 73 73 72 72 72
68 79 67 45 46 53 42 42 38 44 62 96 91 66 83 121 144 170 195 102 120 158 123 89 62 86 81 64 88 87 83 77 79 80 80 79 78 78
51 68 71 44 27 84 74 60 44 41 43 66 87 79 72 63 104 117 130 117 96 171 135 122 144 95 88 46 100 99 96 92 89 87 89 93 91 91
60 49 52 38 8 108 96 88 61 40 36 56 95 109 79 62 91 115 133 139 157 193 166 131 142 125 153 162 156 138 123 119 116 118 120 115 122 112
66 60 41 31 20 47 136 129 108 302 290 0 355 1 22 52 69 80 189 168 136 137 204 108 149 156 151 185 186 183 175 186 170 175 170 170 171 75
90 57 33 25 35 50 65 71 89 326 355 10 347 88 50 42 49 31 42 100 102 72 279 125 162 178 184 160 222 202 168 188 199 226 232 233 231 194
118 111 84 38 18 71 65 28 356 347 346 2 104 112 101 35 44 56 55 65 68 141 226 111 125 163 166 157 191 184 174 196 187 217 206 224 239 243
104 120 107 38 344 355 26 10 27 35 61 72 92 112 183 165 133 24 6 58 66 26 28 88 126 118 105 148 188 178 136 203 197 196 208 205 207 207
84 46 325 305 298 294 15 22 46 51 86 80 25 308 356 54 102 172 185 256 58 318 322 30 71 96 86 61 102 77 160 163 167 207 209 236 227 204
152 24 345 341 318 321 298 152 76 51 47 20 37 29 24 51 354 346 34 114 172 196 288 322 1 75 86 108 63 48 169 141 188 172 136 264 308 168
50 325 290 257 221 171 218 28 49 51 45 60 25 33 36 36 4 329 347 21 350 186 193 251 318 13 13 2 98 89 46 115 251 304 238 139 332 259
272 303 307 107 81 68 82 89 83 290 126 33 61 3 351 348 348 325 310 27 16 360 275 198 112 117 97 223 294 172 142 194 190 301 201 210 207 222
232 267 241 132 132 114 116 116 99 50 25 8 3 346 336 320 360 324 332 176 265 317 322 305 154 169 155 185 188 257 190 185 170 215 222 256 242 27
283 249 217 157 163 145 151 147 142 156 203 215 250 272 301 277 315 326 312 266 250 296 286 246 224 200 144 79 39 286 270 223 186 183 193 152 218 139
263 107 179 155 151 158 171 169 168 212 259 263 260 252 255 251 255 278 296 272 249 257 257 262 217 211 149 163 221 236 271 262 262 246 217 174 169 209
218 118 127 125 169 213 168 192 202 225 244 242 243 258 254 236 238 238 243 264 267 274 256 231 221 230 249 208 217 221 227 217 213 251 268 242 224 222